Location: Star Hoppers Observatory
(42.7905°N, 83.6127°W)
Time: 01:59:19
(UTC-04:00)

NOSS 3-1 (A) - Visible Passes

Search period start: 29 July 2016 00:00
Search period end: 08 August 2016 00:00
Orbit: 856 x 1357 km, 63.4° (Epoch: 18 July)

Date Brightness Start Highest point End Pass type
(mag) Time Alt. Az. Time Alt. Az. Time Alt. Az.
29 Jul 4.7 01:32:43 10° NW 01:39:41 37° WSW 01:40:02 37° WSW visible
29 Jul 4.8 22:56:49 10° NNW 23:03:49 43° NE 23:09:02 20° ESE visible
30 Jul 4.2 00:47:40 10° NW 00:55:07 56° WSW 00:56:27 51° SSW visible
30 Jul 5.1 22:12:14 10° NNW 22:18:41 32° NE 22:25:31 11° E visible
31 Jul 4.0 00:02:49 10° NW 00:10:26 81° WSW 00:12:56 49° SSE visible
31 Jul 5.6 01:55:38 10° WNW 02:00:22 18° WSW 02:00:22 18° WSW visible
31 Jul 5.5 21:27:39 10° NNW 21:33:25 24° NNE 21:39:37 10° E visible
31 Jul 4.1 23:18:06 10° NNW 23:25:39 73° NE 23:29:28 35° SE visible
01 Aug 5.1 01:09:49 10° NW 01:16:14 29° WSW 01:16:54 29° WSW visible
01 Aug 4.5 22:33:28 10° NNW 22:40:44 52° NE 22:46:03 22° ESE visible
02 Aug 4.6 00:24:34 10° NW 00:31:45 44° WSW 00:33:29 39° SW visible
02 Aug 4.9 21:48:52 10° NNW 21:55:42 38° NE 22:02:40 12° ESE visible
02 Aug 4.2 23:39:36 10° NW 23:47:09 65° WSW 23:50:06 41° S visible
03 Aug 5.9 01:33:43 10° WNW 01:37:02 13° WSW 01:37:33 13° WSW visible
03 Aug 4.0 22:54:49 10° NW 23:02:26 89° NE 23:06:47 32° SE visible
04 Aug 5.5 00:47:07 10° WNW 00:52:46 22° WSW 00:54:14 21° WSW visible
04 Aug 4.2 22:10:08 10° NNW 22:17:36 64° NE 22:23:31 20° SE visible
05 Aug 5.1 00:01:35 10° NW 00:08:21 34° WSW 00:10:58 28° SW visible
05 Aug 4.6 21:25:31 10° NNW 21:32:38 46° NE 21:40:19 10° ESE visible
05 Aug 4.5 23:16:28 10° NW 23:23:49 51° WSW 23:27:46 30° S visible
06 Aug 4.2 22:31:34 10° NW 22:39:11 75° WSW 22:44:37 24° SSE visible
07 Aug 5.9 00:24:45 10° WNW 00:29:15 16° WSW 00:32:04 14° SW visible
07 Aug 4.1 21:46:50 10° NW 21:54:25 78° NE 22:01:32 15° SE visible
07 Aug 5.5 23:38:44 10° WNW 23:44:55 26° WSW 23:48:58 18° SSW visible
